Date,TemperatureHighF,TemperatureAvgF,TemperatureLowF,DewpointHighF,DewpointAvgF,DewpointLowF,HumidityHigh,HumidityAvg,HumidityLow,PressureMaxIn,PressureMinIn,WindSpeedMaxMPH,WindSpeedAvgMPH,GustSpeedMaxMPH,PrecipitationSumIn
2013-3-1,28.0,25.1,23.5,23.5,20.4,18.6,85,82,79,30.11,29.96,12,2,12,0.00
2013-3-2,25.5,23.0,19.6,20.3,18.0,14.6,84,81,78,30.09,30.04,7,1,7,0.00
2013-3-3,28.2,21.5,12.2,18.3,14.3,8.2,86,74,62,30.05,29.99,15,2,15,0.00
2013-3-4,36.5,21.7,11.3,19.2,12.8,6.8,85,69,47,30.14,30.04,10,1,10,0.00
2013-3-5,40.8,26.4,14.7,26.2,18.3,8.4,84,72,55,30.13,29.85,12,2,12,0.00
2013-3-6,39.6,31.6,24.3,29.6,25.7,20.0,85,79,66,30.21,29.88,10,2,10,0.00
2013-3-7,34.7,30.4,21.0,28.2,23.8,14.3,89,77,62,30.39,30.19,12,2,12,0.00
2013-3-8,49.1,29.6,16.0,30.2,20.4,11.6,86,70,47,30.49,30.38,9,0,9,0.00
2013-3-9,46.2,35.4,25.5,31.6,26.7,21.1,85,71,53,30.40,30.02,15,3,15,0.00
2013-3-10,59.2,49.3,38.8,44.2,37.3,30.5,74,64,53,30.02,29.79,11,3,11,0.00
2013-3-11,54.7,48.4,36.3,46.8,42.3,31.5,92,80,56,29.81,29.47,16,5,16,0.00
2013-3-12,37.2,33.2,28.2,31.7,27.5,22.8,86,80,69,29.90,29.67,13,4,13,0.00
2013-3-13,35.2,27.8,22.1,25.1,19.3,13.1,86,71,50,30.18,29.85,17,4,17,0.00
2013-3-14,43.0,29.6,19.9,22.8,17.1,12.5,76,60,44,30.24,30.06,12,2,12,0.00
2013-3-15,38.5,33.6,28.8,31.3,26.9,17.5,87,77,59,30.06,29.85,9,2,9,0.00
2013-3-16,32.7,28.3,25.0,29.6,23.9,19.1,89,84,73,30.02,29.78,11,0,11,0.00
2013-3-17,34.3,25.6,19.0,22.1,15.9,10.5,81,67,50,30.27,30.01,10,2,10,0.00
2013-3-18,32.9,27.7,18.3,30.5,22.6,10.5,91,81,70,30.19,29.55,18,4,18,0.00
2013-3-19,32.7,25.3,21.9,29.8,19.1,15.5,89,77,67,29.91,29.59,18,6,18,0.00
2013-3-20,28.0,22.7,15.3,17.4,13.6,8.7,75,68,56,29.93,29.87,14,4,14,0.00
2013-3-21,30.9,23.4,14.2,23.9,17.1,8.0,84,77,70,29.92,29.83,12,3,12,0.00
2013-3-22,41.9,29.4,23.9,24.7,19.3,16.5,75,66,48,30.02,29.91,14,3,14,0.00
2013-3-23,35.4,29.9,25.0,24.8,21.8,18.1,82,72,62,30.11,30.01,8,1,8,0.00
2013-3-24,37.6,28.7,21.4,28.4,21.9,16.4,86,76,60,30.06,29.67,9,1,9,0.00
2013-3-25,39.4,33.2,29.1,28.5,25.7,22.8,78,74,65,29.93,29.60,22,3,22,0.00
2013-3-26,45.0,35.5,30.7,33.0,28.2,25.5,84,75,56,30.11,29.92,13,3,13,0.00
2013-3-27,46.8,36.9,28.0,29.9,25.6,22.9,83,65,45,30.20,30.11,20,3,20,0.00
2013-3-28,54.3,39.1,28.6,30.2,24.5,21.0,77,58,38,30.27,30.19,15,3,15,0.00
2013-3-29,55.6,39.6,28.0,27.7,22.3,18.1,68,52,31,30.29,30.20,9,1,9,0.00
2013-3-30,58.6,41.7,25.3,28.4,22.2,16.7,77,49,24,30.22,29.92,10,1,10,0.00
2013-3-31,59.5,46.2,39.9,39.7,33.2,26.1,79,61,42,29.93,29.63,11,3,11,0.00